TimeCST,TemperatureF,Dew PointF,Humidity,Sea Level PressureIn,VisibilityMPH,Wind Direction,Wind SpeedMPH,Gust SpeedMPH,PrecipitationIn,Events,Conditions,WindDirDegrees,DateUTC
12:15 AM,17.6,15.8,93,30.05,10.0,Calm,Calm,-,N/A,,Overcast,0,2013-01-06 06:15:00
12:35 AM,17.6,15.8,93,30.06,10.0,NW,3.5,-,N/A,,Overcast,310,2013-01-06 06:35:00
12:55 AM,17.6,15.8,93,30.06,10.0,NW,3.5,-,N/A,,Overcast,310,2013-01-06 06:55:00
1:35 AM,17.6,15.8,93,30.08,10.0,NW,8.1,-,N/A,,Overcast,320,2013-01-06 07:35:00
1:55 AM,17.6,15.8,93,30.08,10.0,NW,6.9,-,N/A,,Overcast,320,2013-01-06 07:55:00
2:15 AM,17.6,15.8,93,30.09,10.0,NNW,8.1,-,N/A,,Overcast,340,2013-01-06 08:15:00
2:35 AM,17.6,15.8,93,30.10,10.0,NNW,8.1,-,N/A,,Overcast,340,2013-01-06 08:35:00
2:55 AM,17.6,15.8,93,30.10,10.0,NNW,8.1,-,N/A,,Overcast,340,2013-01-06 08:55:00
3:35 AM,17.6,15.8,93,30.11,10.0,North,6.9,-,N/A,,Overcast,350,2013-01-06 09:35:00
3:55 AM,17.6,15.8,93,30.12,10.0,North,6.9,-,N/A,,Overcast,360,2013-01-06 09:55:00
4:15 AM,17.6,15.8,93,30.12,10.0,North,5.8,-,N/A,,Overcast,350,2013-01-06 10:15:00
4:35 AM,17.6,15.8,93,30.12,10.0,NNW,5.8,-,N/A,,Overcast,340,2013-01-06 10:35:00
4:55 AM,17.6,15.8,93,30.12,10.0,North,4.6,-,N/A,,Overcast,350,2013-01-06 10:55:00
5:35 AM,15.8,15.8,100,30.12,10.0,Calm,Calm,-,N/A,,Overcast,0,2013-01-06 11:35:00
5:55 AM,15.8,15.8,100,30.12,10.0,Calm,Calm,-,N/A,,Overcast,0,2013-01-06 11:55:00
6:15 AM,15.8,15.8,100,30.12,10.0,Calm,Calm,-,N/A,,Overcast,0,2013-01-06 12:15:00
6:35 AM,15.8,15.8,100,30.12,10.0,Calm,Calm,-,N/A,,Overcast,0,2013-01-06 12:35:00
6:55 AM,15.8,15.8,100,30.13,10.0,Calm,Calm,-,N/A,,Overcast,0,2013-01-06 12:55:00
7:15 AM,15.8,15.8,100,30.13,10.0,Calm,Calm,-,N/A,,Overcast,0,2013-01-06 13:15:00
7:35 AM,17.6,15.8,93,30.13,10.0,Calm,Calm,-,N/A,,Overcast,0,2013-01-06 13:35:00
7:55 AM,17.6,15.8,93,30.12,10.0,Calm,Calm,-,N/A,,Overcast,0,2013-01-06 13:55:00
8:35 AM,17.6,15.8,93,30.11,10.0,Calm,Calm,-,N/A,,Overcast,0,2013-01-06 14:35:00
8:55 AM,17.6,15.8,93,30.10,10.0,SE,3.5,-,N/A,,Overcast,140,2013-01-06 14:55:00
9:15 AM,17.6,15.8,93,30.10,10.0,SSE,3.5,-,N/A,,Overcast,160,2013-01-06 15:15:00
9:35 AM,17.6,15.8,93,30.10,10.0,SSE,4.6,-,N/A,,Overcast,160,2013-01-06 15:35:00
9:55 AM,17.6,15.8,93,30.10,10.0,SSE,3.5,-,N/A,,Overcast,150,2013-01-06 15:55:00
10:15 AM,17.6,17.6,100,30.09,10.0,SSE,6.9,-,N/A,,Overcast,160,2013-01-06 16:15:00
10:35 AM,17.6,17.6,100,30.08,10.0,South,6.9,-,N/A,,Overcast,170,2013-01-06 16:35:00
10:55 AM,17.6,17.6,100,30.07,-9999.0,South,10.4,-,N/A,,Overcast,170,2013-01-06 16:55:00
11:15 AM,19.4,17.6,93,30.06,-9999.0,South,8.1,-,N/A,,Overcast,170,2013-01-06 17:15:00
11:35 AM,19.4,17.6,93,30.06,-9999.0,South,8.1,-,N/A,,Overcast,170,2013-01-06 17:35:00
11:55 AM,19.4,17.6,93,30.05,-9999.0,South,6.9,-,N/A,,Overcast,180,2013-01-06 17:55:00
12:15 PM,19.4,19.4,100,30.03,-9999.0,South,8.1,-,N/A,,Overcast,170,2013-01-06 18:15:00
12:35 PM,19.4,19.4,100,30.02,-9999.0,South,11.5,-,N/A,,Overcast,180,2013-01-06 18:35:00
12:55 PM,19.4,19.4,100,30.00,10.0,SSW,15.0,19.6,N/A,,Overcast,210,2013-01-06 18:55:00
1:15 PM,21.2,19.4,93,29.98,10.0,South,10.4,-,N/A,,Overcast,190,2013-01-06 19:15:00
1:35 PM,21.2,17.6,86,29.97,10.0,South,11.5,-,N/A,,Overcast,190,2013-01-06 19:35:00
1:55 PM,21.2,19.4,93,29.95,10.0,South,12.7,18.4,N/A,,Overcast,190,2013-01-06 19:55:00
2:15 PM,21.2,19.4,93,29.95,10.0,South,11.5,18.4,N/A,,Overcast,180,2013-01-06 20:15:00
2:35 PM,21.2,17.6,86,29.93,10.0,South,13.8,-,N/A,,Overcast,190,2013-01-06 20:35:00
2:55 PM,21.2,17.6,86,29.92,-9999.0,South,12.7,16.1,N/A,,Overcast,180,2013-01-06 20:55:00
3:15 PM,21.2,17.6,86,29.92,-9999.0,South,10.4,16.1,N/A,,Overcast,170,2013-01-06 21:15:00
3:35 PM,21.2,19.4,93,29.91,-9999.0,South,10.4,-,N/A,,Mostly Cloudy,190,2013-01-06 21:35:00
3:55 PM,21.2,17.6,86,29.90,-9999.0,South,11.5,-,N/A,,Unknown,180,2013-01-06 21:55:00
4:35 PM,19.4,19.4,100,29.86,10.0,South,12.7,-,N/A,,Clear,170,2013-01-06 22:35:00
4:55 PM,19.4,19.4,100,29.84,-9999.0,South,13.8,20.7,N/A,,Unknown,180,2013-01-06 22:55:00
5:15 PM,19.4,19.4,100,29.82,-9999.0,South,12.7,19.6,N/A,,Unknown,170,2013-01-06 23:15:00
5:35 PM,19.4,19.4,100,29.80,10.0,SSE,18.4,21.9,N/A,,Mostly Cloudy,160,2013-01-06 23:35:00
5:55 PM,19.4,19.4,100,29.78,10.0,SSE,20.7,27.6,N/A,,Mostly Cloudy,160,2013-01-06 23:55:00
6:15 PM,19.4,19.4,100,29.77,10.0,South,17.3,23.0,N/A,,Partly Cloudy,170,2013-01-07 00:15:00
6:35 PM,19.4,19.4,100,29.75,10.0,SSE,18.4,21.9,N/A,,Clear,160,2013-01-07 00:35:00
6:55 PM,19.4,19.4,100,29.72,10.0,SSE,21.9,27.6,N/A,,Clear,160,2013-01-07 00:55:00
7:15 PM,21.2,19.4,93,29.72,10.0,South,15.0,27.6,N/A,,Scattered Clouds,170,2013-01-07 01:15:00
7:35 PM,21.2,19.4,93,29.72,-9999.0,South,13.8,17.3,N/A,,Mostly Cloudy,180,2013-01-07 01:35:00
7:55 PM,19.4,19.4,100,29.71,10.0,South,12.7,-,N/A,,Overcast,170,2013-01-07 01:55:00
8:15 PM,21.2,17.6,86,29.71,10.0,South,10.4,16.1,N/A,,Mostly Cloudy,170,2013-01-07 02:15:00
8:35 PM,19.4,17.6,93,29.69,10.0,SE,11.5,17.3,N/A,,Mostly Cloudy,140,2013-01-07 02:35:00
8:55 PM,21.2,17.6,86,29.68,10.0,South,10.4,-,N/A,,Partly Cloudy,170,2013-01-07 02:55:00
9:15 PM,23.0,17.6,80,29.66,10.0,SSW,16.1,21.9,N/A,,Clear,200,2013-01-07 03:15:00
10:15 PM,23.0,17.6,80,29.62,10.0,SSW,17.3,24.2,N/A,,Mostly Cloudy,200,2013-01-07 04:15:00
10:35 PM,23.0,17.6,80,29.61,10.0,SW,12.7,-,N/A,,Mostly Cloudy,220,2013-01-07 04:35:00
10:55 PM,24.8,17.6,74,29.61,-9999.0,SW,10.4,-,N/A,,Scattered Clouds,220,2013-01-07 04:55:00
11:35 PM,24.8,19.4,80,29.60,10.0,SE,5.8,-,N/A,,Partly Cloudy,140,2013-01-07 05:35:00
11:55 PM,26.6,19.4,74,29.59,10.0,Calm,Calm,-,N/A,,Clear,0,2013-01-07 05:55:00